Location: Zagreb
(45.8000°N, 16.0000°E)
Time: 20:29:55
(UTC+01:00)

DX 1 - Pass Details

Date: 05 November 2020
Orbit: 619 x 630 km, 98.5° (Epoch: 01 December)

Event Time Altitude Azimuth Distance (km) Brightness Sun altitude
Exits shadow 19:36:17 10° 347° (NNW) 1,997 ? -31.6°
Maximum altitude 19:39:37 22° 296° (WNW) 1,360 ? -32.2°
Drops below altitude 10° 19:42:59 10° 245° (WSW) 1,997 ? -32.8°
Sets 19:45:32 0° 231° (SW) 2,901 ? -33.2°
